Year,Month,Day,Hour,Minute,Value (Times are PST for temperature in C)
2019,11,02,00,00,2.70
2019,11,02,00,01,2.70
2019,11,02,00,02,2.60
2019,11,02,00,03,2.60
2019,11,02,00,04,2.60
2019,11,02,00,05,2.60
2019,11,02,00,06,2.60
2019,11,02,00,07,2.60
2019,11,02,00,08,2.60
2019,11,02,00,09,2.60
2019,11,02,00,10,2.60
2019,11,02,00,11,2.60
2019,11,02,00,12,2.70
2019,11,02,00,13,2.70
2019,11,02,00,14,2.80
2019,11,02,00,15,2.80
2019,11,02,00,16,2.80
2019,11,02,00,17,2.80
2019,11,02,00,18,2.80
2019,11,02,00,19,2.80
2019,11,02,00,20,2.80
2019,11,02,00,21,2.80
2019,11,02,00,22,2.80
2019,11,02,00,23,2.80
2019,11,02,00,24,2.80
2019,11,02,00,25,2.80
2019,11,02,00,26,2.80
2019,11,02,00,27,2.80
2019,11,02,00,28,2.80
2019,11,02,00,29,2.80
2019,11,02,00,30,2.80
2019,11,02,00,31,2.80
2019,11,02,00,32,2.80
2019,11,02,00,33,2.80
2019,11,02,00,34,2.80
2019,11,02,00,35,2.80
2019,11,02,00,36,2.80
2019,11,02,00,37,2.80
2019,11,02,00,38,2.80
2019,11,02,00,39,2.80
2019,11,02,00,40,2.80
2019,11,02,00,41,2.80
2019,11,02,00,42,2.80
2019,11,02,00,43,2.80
2019,11,02,00,44,2.80
2019,11,02,00,45,2.80
2019,11,02,00,46,2.70
2019,11,02,00,47,2.70
2019,11,02,00,48,2.70
2019,11,02,00,49,2.70
2019,11,02,00,50,2.70
2019,11,02,00,51,2.70
2019,11,02,00,52,2.70
2019,11,02,00,53,2.70
2019,11,02,00,54,2.70
2019,11,02,00,55,2.70
2019,11,02,00,56,2.70
2019,11,02,00,57,2.70
2019,11,02,00,58,2.70
2019,11,02,00,59,2.70
2019,11,02,01,00,2.70
2019,11,02,01,01,2.70
2019,11,02,01,02,2.70
2019,11,02,01,03,2.70
2019,11,02,01,04,2.70
2019,11,02,01,05,2.70
2019,11,02,01,06,2.70
2019,11,02,01,07,2.70
2019,11,02,01,08,2.70
2019,11,02,01,09,2.70
2019,11,02,01,10,2.70
2019,11,02,01,11,2.70
2019,11,02,01,12,2.80
2019,11,02,01,13,2.80
2019,11,02,01,14,2.80
2019,11,02,01,15,2.80
2019,11,02,01,16,2.80
2019,11,02,01,17,2.80
2019,11,02,01,18,2.90
2019,11,02,01,19,2.90
2019,11,02,01,20,2.90
2019,11,02,01,21,2.90
2019,11,02,01,22,2.90
2019,11,02,01,23,2.90
2019,11,02,01,24,3.00
2019,11,02,01,25,3.00
2019,11,02,01,26,3.00
2019,11,02,01,27,3.10
2019,11,02,01,28,3.10
2019,11,02,01,29,3.10
2019,11,02,01,30,3.20
2019,11,02,01,31,3.20
2019,11,02,01,32,3.20
2019,11,02,01,33,3.20
2019,11,02,01,34,3.30
2019,11,02,01,35,3.30
2019,11,02,01,36,3.30
2019,11,02,01,37,3.30
2019,11,02,01,38,3.30
2019,11,02,01,39,3.30
2019,11,02,01,40,3.30
2019,11,02,01,41,3.30
2019,11,02,01,42,3.30
2019,11,02,01,43,3.30
2019,11,02,01,44,3.30
2019,11,02,01,45,3.30
2019,11,02,01,46,3.30
2019,11,02,01,47,3.30
2019,11,02,01,48,3.30
2019,11,02,01,49,3.30
2019,11,02,01,50,3.30
2019,11,02,01,51,3.30
2019,11,02,01,52,3.30
2019,11,02,01,53,3.30
2019,11,02,01,54,3.30
2019,11,02,01,55,3.30
2019,11,02,01,56,3.30
2019,11,02,01,57,3.30
2019,11,02,01,58,3.30
2019,11,02,01,59,3.30
2019,11,02,02,00,3.30
2019,11,02,02,01,3.30
2019,11,02,02,02,3.20
2019,11,02,02,03,3.20
2019,11,02,02,04,3.20
2019,11,02,02,05,3.20
2019,11,02,02,06,3.20
2019,11,02,02,07,3.20
2019,11,02,02,08,3.20
2019,11,02,02,09,3.20
2019,11,02,02,10,3.20
2019,11,02,02,11,3.20
2019,11,02,02,12,3.30
2019,11,02,02,13,3.30
2019,11,02,02,14,3.30
2019,11,02,02,15,3.30
2019,11,02,02,16,3.30
2019,11,02,02,17,3.30
2019,11,02,02,18,3.30
2019,11,02,02,19,3.30
2019,11,02,02,20,3.30
2019,11,02,02,21,3.30
2019,11,02,02,22,3.30
2019,11,02,02,23,3.30
2019,11,02,02,24,3.30
2019,11,02,02,25,3.30
2019,11,02,02,26,3.30
2019,11,02,02,27,3.30
2019,11,02,02,28,3.30
2019,11,02,02,29,3.30
2019,11,02,02,30,3.30
2019,11,02,02,31,3.30
2019,11,02,02,32,3.30
2019,11,02,02,33,3.30
2019,11,02,02,34,3.30
2019,11,02,02,35,3.40
2019,11,02,02,36,3.40
2019,11,02,02,37,3.40
2019,11,02,02,38,3.40
2019,11,02,02,39,3.40
2019,11,02,02,40,3.40
2019,11,02,02,41,3.40
2019,11,02,02,42,3.50
2019,11,02,02,43,3.50
2019,11,02,02,44,3.50
2019,11,02,02,45,3.50
2019,11,02,02,46,3.50
2019,11,02,02,47,3.50
2019,11,02,02,48,3.50
2019,11,02,02,49,3.50
2019,11,02,02,50,3.50
2019,11,02,02,51,3.50
2019,11,02,02,52,3.50
2019,11,02,02,53,3.60
2019,11,02,02,54,3.60
2019,11,02,02,55,3.60
2019,11,02,02,56,3.60
2019,11,02,02,57,3.60
2019,11,02,02,58,3.70
2019,11,02,02,59,3.70
2019,11,02,03,00,3.70
2019,11,02,03,01,3.70
2019,11,02,03,02,3.70
2019,11,02,03,03,3.70
2019,11,02,03,04,3.70
2019,11,02,03,05,3.70
2019,11,02,03,06,3.70
2019,11,02,03,07,3.70
2019,11,02,03,08,3.80
2019,11,02,03,09,3.80
2019,11,02,03,10,3.80
2019,11,02,03,11,3.80
2019,11,02,03,12,3.80
2019,11,02,03,13,3.80
2019,11,02,03,14,3.80
2019,11,02,03,15,3.80
2019,11,02,03,16,3.80
2019,11,02,03,17,3.80
2019,11,02,03,18,3.80
2019,11,02,03,19,3.80
2019,11,02,03,20,3.80
2019,11,02,03,21,3.80
2019,11,02,03,22,3.80
2019,11,02,03,23,3.80
2019,11,02,03,24,3.70
2019,11,02,03,25,3.70
2019,11,02,03,26,3.70
2019,11,02,03,27,3.70
2019,11,02,03,28,3.70
2019,11,02,03,29,3.70
2019,11,02,03,30,3.80
2019,11,02,03,31,3.80
2019,11,02,03,32,3.80
2019,11,02,03,33,3.80
2019,11,02,03,34,3.80
2019,11,02,03,35,3.80
2019,11,02,03,36,3.80
2019,11,02,03,37,3.80
2019,11,02,03,38,3.80
2019,11,02,03,39,3.80
2019,11,02,03,40,3.80
2019,11,02,03,41,3.80
2019,11,02,03,42,3.80
2019,11,02,03,43,3.80
2019,11,02,03,44,3.80
2019,11,02,03,45,3.80
2019,11,02,03,46,3.80
2019,11,02,03,47,3.80
2019,11,02,03,48,3.80
2019,11,02,03,49,3.80
2019,11,02,03,50,3.80
2019,11,02,03,51,3.80
2019,11,02,03,52,3.80
2019,11,02,03,53,3.80
2019,11,02,03,54,3.80
2019,11,02,03,55,3.80
2019,11,02,03,56,3.80
2019,11,02,03,57,3.80
2019,11,02,03,58,3.80
2019,11,02,03,59,3.90
2019,11,02,04,00,3.90
2019,11,02,04,01,3.90
2019,11,02,04,02,3.90
2019,11,02,04,03,3.90
2019,11,02,04,04,3.90
2019,11,02,04,05,3.90
2019,11,02,04,06,3.90
2019,11,02,04,07,3.90
2019,11,02,04,08,3.90
2019,11,02,04,09,4.00
2019,11,02,04,10,4.00
2019,11,02,04,11,4.00
2019,11,02,04,12,4.00
2019,11,02,04,13,4.00
2019,11,02,04,14,4.00
2019,11,02,04,15,4.00
2019,11,02,04,16,4.00
2019,11,02,04,17,4.10
2019,11,02,04,18,4.10
2019,11,02,04,19,4.10
2019,11,02,04,20,4.10
2019,11,02,04,21,4.10
2019,11,02,04,22,4.10
2019,11,02,04,23,4.10
2019,11,02,04,24,4.10
2019,11,02,04,25,4.10
2019,11,02,04,26,4.10
2019,11,02,04,27,4.10
2019,11,02,04,28,4.10
2019,11,02,04,29,4.10
2019,11,02,04,30,4.10
2019,11,02,04,31,4.10
2019,11,02,04,32,4.10
2019,11,02,04,33,4.10
2019,11,02,04,34,4.10
2019,11,02,04,35,4.20
2019,11,02,04,36,4.20
2019,11,02,04,37,4.20
2019,11,02,04,38,4.20
2019,11,02,04,39,4.20
2019,11,02,04,40,4.20
2019,11,02,04,41,4.20
2019,11,02,04,42,4.20
2019,11,02,04,43,4.20
2019,11,02,04,44,4.20
2019,11,02,04,45,4.20
2019,11,02,04,46,4.20
2019,11,02,04,47,4.20
2019,11,02,04,48,4.20
2019,11,02,04,49,4.20
2019,11,02,04,50,4.20
2019,11,02,04,51,4.20
2019,11,02,04,52,4.20
2019,11,02,04,53,4.20
2019,11,02,04,54,4.20
2019,11,02,04,55,4.20
2019,11,02,04,56,4.20
2019,11,02,04,57,4.20
2019,11,02,04,58,4.20
2019,11,02,04,59,4.20
2019,11,02,05,00,4.20
2019,11,02,05,01,4.20
2019,11,02,05,02,4.20
2019,11,02,05,03,4.20
2019,11,02,05,04,4.20
2019,11,02,05,05,4.20
2019,11,02,05,06,4.20
2019,11,02,05,07,4.20
2019,11,02,05,08,4.10
2019,11,02,05,09,4.10
2019,11,02,05,10,4.10
2019,11,02,05,11,4.10
2019,11,02,05,12,4.10
2019,11,02,05,13,4.10
2019,11,02,05,14,4.10
2019,11,02,05,15,4.10
2019,11,02,05,16,4.10
2019,11,02,05,17,4.10
2019,11,02,05,18,4.10
2019,11,02,05,19,4.10
2019,11,02,05,20,4.10
2019,11,02,05,21,4.10
2019,11,02,05,22,4.10
2019,11,02,05,23,4.00
2019,11,02,05,24,4.00
2019,11,02,05,25,4.00
2019,11,02,05,26,4.00
2019,11,02,05,27,4.00
2019,11,02,05,28,4.00
2019,11,02,05,29,4.00
2019,11,02,05,30,4.00
2019,11,02,05,31,4.00
2019,11,02,05,32,4.00
2019,11,02,05,33,4.00
2019,11,02,05,34,4.00
2019,11,02,05,35,4.00
2019,11,02,05,36,4.00
2019,11,02,05,37,4.00
2019,11,02,05,38,4.00
2019,11,02,05,39,3.90
2019,11,02,05,40,4.00
2019,11,02,05,41,3.90
2019,11,02,05,42,3.90
2019,11,02,05,43,3.90
2019,11,02,05,44,3.90
2019,11,02,05,45,3.90
2019,11,02,05,46,3.90
2019,11,02,05,47,3.90
2019,11,02,05,48,3.90
2019,11,02,05,49,3.90
2019,11,02,05,50,4.00
2019,11,02,05,51,4.00
2019,11,02,05,52,4.00
2019,11,02,05,53,4.00
2019,11,02,05,54,3.90
2019,11,02,05,55,3.90
2019,11,02,05,56,3.90
2019,11,02,05,57,3.90
2019,11,02,05,58,3.90
2019,11,02,05,59,3.90
2019,11,02,06,00,3.90
2019,11,02,06,01,3.90
2019,11,02,06,02,3.90
2019,11,02,06,03,3.90
2019,11,02,06,04,3.90
2019,11,02,06,05,3.90
2019,11,02,06,06,3.90
2019,11,02,06,07,3.90
2019,11,02,06,08,3.90
2019,11,02,06,09,3.90
2019,11,02,06,10,3.90
2019,11,02,06,11,3.90
2019,11,02,06,12,3.90
2019,11,02,06,13,3.90
2019,11,02,06,14,3.80
2019,11,02,06,15,3.80
2019,11,02,06,16,3.80
2019,11,02,06,17,3.80
2019,11,02,06,18,3.80
2019,11,02,06,19,3.80
2019,11,02,06,20,3.80
2019,11,02,06,21,3.80
2019,11,02,06,22,3.80
2019,11,02,06,23,3.80
2019,11,02,06,24,3.80
2019,11,02,06,25,3.80
2019,11,02,06,26,3.80
2019,11,02,06,27,3.80
2019,11,02,06,28,3.80
2019,11,02,06,29,3.80
2019,11,02,06,30,3.80
2019,11,02,06,31,3.80
2019,11,02,06,32,3.80
2019,11,02,06,33,3.80
2019,11,02,06,34,3.80
2019,11,02,06,35,3.80
2019,11,02,06,36,3.80
2019,11,02,06,37,3.80
2019,11,02,06,38,3.90
2019,11,02,06,39,3.90
2019,11,02,06,40,3.90
2019,11,02,06,41,3.90
2019,11,02,06,42,3.90
2019,11,02,06,43,3.90
2019,11,02,06,44,3.90
2019,11,02,06,45,3.90
2019,11,02,06,46,3.90
2019,11,02,06,47,4.00
2019,11,02,06,48,4.00
2019,11,02,06,49,4.00
2019,11,02,06,50,4.00
2019,11,02,06,51,4.00
2019,11,02,06,52,4.00
2019,11,02,06,53,4.00
2019,11,02,06,54,4.00
2019,11,02,06,55,4.00
2019,11,02,06,56,4.00
2019,11,02,06,57,4.00
2019,11,02,06,58,4.00
2019,11,02,06,59,4.00
2019,11,02,07,00,4.00
2019,11,02,07,01,4.00
2019,11,02,07,02,4.00
2019,11,02,07,03,4.00
2019,11,02,07,04,4.00
2019,11,02,07,05,4.00
2019,11,02,07,06,4.00
2019,11,02,07,07,4.00
2019,11,02,07,08,4.00
2019,11,02,07,09,4.00
2019,11,02,07,10,4.00
2019,11,02,07,11,4.00
2019,11,02,07,12,4.00
2019,11,02,07,13,4.00
2019,11,02,07,14,4.00
2019,11,02,07,15,4.00
2019,11,02,07,16,4.00
2019,11,02,07,17,4.00
2019,11,02,07,18,4.00
2019,11,02,07,19,4.00
2019,11,02,07,20,4.00
2019,11,02,07,21,4.00
2019,11,02,07,22,3.90
2019,11,02,07,23,3.90
2019,11,02,07,24,3.90
2019,11,02,07,25,3.90
2019,11,02,07,26,3.90
2019,11,02,07,27,3.90
2019,11,02,07,28,3.90
2019,11,02,07,29,3.90
2019,11,02,07,30,3.90
2019,11,02,07,31,3.90
2019,11,02,07,32,3.90
2019,11,02,07,33,3.90
2019,11,02,07,34,3.90
2019,11,02,07,35,3.90
2019,11,02,07,36,3.90
2019,11,02,07,37,3.90
2019,11,02,07,38,4.00
2019,11,02,07,39,4.00
2019,11,02,07,40,3.90
2019,11,02,07,41,4.00
2019,11,02,07,42,4.00
2019,11,02,07,43,4.00
2019,11,02,07,44,4.00
2019,11,02,07,45,4.00
2019,11,02,07,46,4.00
2019,11,02,07,47,4.00
2019,11,02,07,48,4.00
2019,11,02,07,49,4.00
2019,11,02,07,50,4.00
2019,11,02,07,51,4.00
2019,11,02,07,52,4.00
2019,11,02,07,53,4.00
2019,11,02,07,54,4.00
2019,11,02,07,55,4.00
2019,11,02,07,56,4.00
2019,11,02,07,57,4.00
2019,11,02,07,58,4.00
2019,11,02,07,59,4.00
2019,11,02,08,00,4.00
2019,11,02,08,01,4.00
2019,11,02,08,02,4.00
2019,11,02,08,03,4.00
2019,11,02,08,04,4.00
2019,11,02,08,05,4.00
2019,11,02,08,06,4.00
2019,11,02,08,07,4.00
2019,11,02,08,08,4.00
2019,11,02,08,09,4.00
2019,11,02,08,10,4.00
2019,11,02,08,11,4.00
2019,11,02,08,12,4.00
2019,11,02,08,13,4.00
2019,11,02,08,14,4.00
2019,11,02,08,15,4.00
2019,11,02,08,16,4.00
2019,11,02,08,17,4.00
2019,11,02,08,18,4.00
2019,11,02,08,19,4.00
2019,11,02,08,20,4.00
2019,11,02,08,21,4.00
2019,11,02,08,22,4.00
2019,11,02,08,23,4.00
2019,11,02,08,24,4.00
2019,11,02,08,25,4.00
2019,11,02,08,26,4.10
2019,11,02,08,27,4.10
2019,11,02,08,28,4.10
2019,11,02,08,29,4.10
2019,11,02,08,30,4.10
2019,11,02,08,31,4.10
2019,11,02,08,32,4.10
2019,11,02,08,33,4.10
2019,11,02,08,34,4.10
2019,11,02,08,35,4.10
2019,11,02,08,36,4.20
2019,11,02,08,37,4.20
2019,11,02,08,38,4.20
2019,11,02,08,39,4.20
2019,11,02,08,40,4.20
2019,11,02,08,41,4.20
2019,11,02,08,42,4.20
2019,11,02,08,43,4.20
2019,11,02,08,44,4.20
2019,11,02,08,45,4.20
2019,11,02,08,46,4.20
2019,11,02,08,47,4.20
2019,11,02,08,48,4.20
2019,11,02,08,49,4.20
2019,11,02,08,50,4.20
2019,11,02,08,51,4.20
2019,11,02,08,52,4.30
2019,11,02,08,53,4.30
2019,11,02,08,54,4.30
2019,11,02,08,55,4.30
2019,11,02,08,56,4.30
2019,11,02,08,57,4.30
2019,11,02,08,58,4.30
2019,11,02,08,59,4.30
2019,11,02,09,00,4.30
2019,11,02,09,01,4.30
2019,11,02,09,02,4.40
2019,11,02,09,03,4.40
2019,11,02,09,04,4.40
2019,11,02,09,05,4.40
2019,11,02,09,06,4.40
2019,11,02,09,07,4.40
2019,11,02,09,08,4.40
2019,11,02,09,09,4.50
2019,11,02,09,10,4.50
2019,11,02,09,11,4.50
2019,11,02,09,12,4.50
2019,11,02,09,13,4.50
2019,11,02,09,14,4.50
2019,11,02,09,15,4.60
2019,11,02,09,16,4.60
2019,11,02,09,17,4.60
2019,11,02,09,18,4.60
2019,11,02,09,19,4.60
2019,11,02,09,20,4.60
2019,11,02,09,21,4.60
2019,11,02,09,22,4.60
2019,11,02,09,23,4.60
2019,11,02,09,24,4.70
2019,11,02,09,25,4.70
2019,11,02,09,26,4.70
2019,11,02,09,27,4.70
2019,11,02,09,28,4.70
2019,11,02,09,29,4.70
2019,11,02,09,30,4.70
2019,11,02,09,31,4.70
2019,11,02,09,32,4.70
2019,11,02,09,33,4.70
2019,11,02,09,34,4.70
2019,11,02,09,35,4.70
2019,11,02,09,36,4.70
2019,11,02,09,37,4.80
2019,11,02,09,38,4.80
2019,11,02,09,39,4.80
2019,11,02,09,40,4.80
2019,11,02,09,41,4.80
2019,11,02,09,42,4.80
2019,11,02,09,43,4.80
2019,11,02,09,44,4.80
2019,11,02,09,45,4.80
2019,11,02,09,46,4.80
2019,11,02,09,47,4.80
2019,11,02,09,48,4.80
2019,11,02,09,49,4.80
2019,11,02,09,50,4.80
2019,11,02,09,51,4.80
2019,11,02,09,52,4.80
2019,11,02,09,53,4.80
2019,11,02,09,54,4.80
2019,11,02,09,55,4.80
2019,11,02,09,56,4.80
2019,11,02,09,57,4.80
2019,11,02,09,58,4.90
2019,11,02,09,59,4.90
2019,11,02,10,00,4.90
2019,11,02,10,01,4.90
2019,11,02,10,02,4.90
2019,11,02,10,03,4.90
2019,11,02,10,04,4.90
2019,11,02,10,05,4.90
2019,11,02,10,06,4.80
2019,11,02,10,07,4.80
2019,11,02,10,08,4.80
2019,11,02,10,09,4.80
2019,11,02,10,10,4.80
2019,11,02,10,11,4.80
2019,11,02,10,12,4.80
2019,11,02,10,13,4.80
2019,11,02,10,14,4.80
2019,11,02,10,15,4.80
2019,11,02,10,16,4.80
2019,11,02,10,17,4.80
2019,11,02,10,18,4.80
2019,11,02,10,19,4.80
2019,11,02,10,20,4.80
2019,11,02,10,21,4.80
2019,11,02,10,22,4.90
2019,11,02,10,23,4.90
2019,11,02,10,24,4.90
2019,11,02,10,25,4.90
2019,11,02,10,26,4.90
2019,11,02,10,27,4.90
2019,11,02,10,28,4.90
2019,11,02,10,29,5.00
2019,11,02,10,30,5.00
2019,11,02,10,31,5.00
2019,11,02,10,32,5.00
2019,11,02,10,33,5.00
2019,11,02,10,34,5.00
2019,11,02,10,35,5.00
2019,11,02,10,36,5.00
2019,11,02,10,37,5.00
2019,11,02,10,38,5.00
2019,11,02,10,39,5.00
2019,11,02,10,40,5.00
2019,11,02,10,41,5.10
2019,11,02,10,42,5.10
2019,11,02,10,43,5.10
2019,11,02,10,44,5.10
2019,11,02,10,45,5.10
2019,11,02,10,46,5.10
2019,11,02,10,47,5.10
2019,11,02,10,48,5.10
2019,11,02,10,49,5.20
2019,11,02,10,50,5.20
2019,11,02,10,51,5.20
2019,11,02,10,52,5.20
2019,11,02,10,53,5.30
2019,11,02,10,54,5.30
2019,11,02,10,55,5.30
2019,11,02,10,56,5.30
2019,11,02,10,57,5.30
2019,11,02,10,58,5.20
2019,11,02,10,59,5.20
2019,11,02,11,00,5.20
2019,11,02,11,01,5.20
2019,11,02,11,02,5.20
2019,11,02,11,03,5.20
2019,11,02,11,04,5.20
2019,11,02,11,05,5.20
2019,11,02,11,06,5.20
2019,11,02,11,07,5.20
2019,11,02,11,08,5.20
2019,11,02,11,09,5.20
2019,11,02,11,10,5.20
2019,11,02,11,11,5.20
2019,11,02,11,12,5.20
2019,11,02,11,13,5.20
2019,11,02,11,14,5.20
2019,11,02,11,15,5.20
2019,11,02,11,16,5.20
2019,11,02,11,17,5.20
2019,11,02,11,18,5.30
2019,11,02,11,19,5.30
2019,11,02,11,20,5.30
2019,11,02,11,21,5.40
2019,11,02,11,22,5.40
2019,11,02,11,23,5.40
2019,11,02,11,24,5.50
2019,11,02,11,25,5.50
2019,11,02,11,26,5.50
2019,11,02,11,27,5.50
2019,11,02,11,28,5.50
2019,11,02,11,29,5.50
2019,11,02,11,30,5.50
2019,11,02,11,31,5.40
2019,11,02,11,32,5.40
2019,11,02,11,33,5.40
2019,11,02,11,34,5.40
2019,11,02,11,35,5.40
2019,11,02,11,36,5.40
2019,11,02,11,37,5.40
2019,11,02,11,38,5.50
2019,11,02,11,39,5.50
2019,11,02,11,40,5.50
2019,11,02,11,41,5.50
2019,11,02,11,42,5.50
2019,11,02,11,43,5.60
2019,11,02,11,44,5.60
2019,11,02,11,45,5.60
2019,11,02,11,46,5.60
2019,11,02,11,47,5.70
2019,11,02,11,48,5.70
2019,11,02,11,49,5.70
2019,11,02,11,50,5.70
2019,11,02,11,51,5.80
2019,11,02,11,52,5.80
2019,11,02,11,53,5.80
2019,11,02,11,54,5.80
2019,11,02,11,55,5.80
2019,11,02,11,56,5.80
2019,11,02,11,57,5.80
2019,11,02,11,58,5.80
2019,11,02,11,59,5.80
2019,11,02,12,00,5.80
2019,11,02,12,01,5.80
2019,11,02,12,02,5.80
2019,11,02,12,03,5.80
2019,11,02,12,04,5.80
2019,11,02,12,05,5.80
2019,11,02,12,06,5.80
2019,11,02,12,07,5.80
2019,11,02,12,08,5.80
2019,11,02,12,09,5.80
2019,11,02,12,10,5.80
2019,11,02,12,11,5.80
2019,11,02,12,12,5.80
2019,11,02,12,13,5.80
2019,11,02,12,14,5.80
2019,11,02,12,15,5.80
2019,11,02,12,16,5.80
2019,11,02,12,17,5.90
2019,11,02,12,18,5.90
2019,11,02,12,19,5.90
2019,11,02,12,20,5.90
2019,11,02,12,21,5.90
2019,11,02,12,22,5.90
2019,11,02,12,23,5.90
2019,11,02,12,24,5.90
2019,11,02,12,25,5.90
2019,11,02,12,26,5.90
2019,11,02,12,27,5.90
2019,11,02,12,28,5.90
2019,11,02,12,29,5.90
2019,11,02,12,30,6.00
2019,11,02,12,31,6.00
2019,11,02,12,32,6.10
2019,11,02,12,33,6.10
2019,11,02,12,34,6.10
2019,11,02,12,35,6.10
2019,11,02,12,36,6.10
2019,11,02,12,37,6.10
2019,11,02,12,38,6.10
2019,11,02,12,39,6.10
2019,11,02,12,40,6.10
2019,11,02,12,41,6.10
2019,11,02,12,42,6.10
2019,11,02,12,43,6.10
2019,11,02,12,44,6.10
2019,11,02,12,45,6.10
2019,11,02,12,46,6.20
2019,11,02,12,47,6.20
2019,11,02,12,48,6.20
2019,11,02,12,49,6.20
2019,11,02,12,50,6.20
2019,11,02,12,51,6.20
2019,11,02,12,52,6.20
2019,11,02,12,53,6.20
2019,11,02,12,54,6.20
2019,11,02,12,55,6.20
2019,11,02,12,56,6.30
2019,11,02,12,57,6.30
2019,11,02,12,58,6.30
2019,11,02,12,59,6.30
2019,11,02,13,00,6.30
2019,11,02,13,01,6.30
2019,11,02,13,02,6.40
2019,11,02,13,03,6.40
2019,11,02,13,04,6.40
2019,11,02,13,05,6.40
2019,11,02,13,06,6.50
2019,11,02,13,07,6.50
2019,11,02,13,08,6.60
2019,11,02,13,09,6.60
2019,11,02,13,10,6.60
2019,11,02,13,11,6.70
2019,11,02,13,12,6.70
2019,11,02,13,13,6.70
2019,11,02,13,14,6.80
2019,11,02,13,15,6.80
2019,11,02,13,16,6.80
2019,11,02,13,17,6.80
2019,11,02,13,18,6.90
2019,11,02,13,19,6.90
2019,11,02,13,20,6.90
2019,11,02,13,21,6.90
2019,11,02,13,22,6.90
2019,11,02,13,23,6.90
2019,11,02,13,24,6.90
2019,11,02,13,25,6.90
2019,11,02,13,26,6.90
2019,11,02,13,27,6.90
2019,11,02,13,28,6.90
2019,11,02,13,29,6.80
2019,11,02,13,30,6.80
2019,11,02,13,31,6.80
2019,11,02,13,32,6.80
2019,11,02,13,33,6.80
2019,11,02,13,34,6.90
2019,11,02,13,35,6.90
2019,11,02,13,36,6.90
2019,11,02,13,37,6.90
2019,11,02,13,38,6.90
2019,11,02,13,39,6.90
2019,11,02,13,40,6.90
2019,11,02,13,41,6.90
2019,11,02,13,42,6.90
2019,11,02,13,43,7.00
2019,11,02,13,44,7.00
2019,11,02,13,45,7.00
2019,11,02,13,46,7.00
2019,11,02,13,47,7.10
2019,11,02,13,48,7.10
2019,11,02,13,49,7.10
2019,11,02,13,50,7.20
2019,11,02,13,51,7.20
2019,11,02,13,52,7.30
2019,11,02,13,53,7.30
2019,11,02,13,54,7.30
2019,11,02,13,55,7.40
2019,11,02,13,56,7.40
2019,11,02,13,57,7.40
2019,11,02,13,58,7.40
2019,11,02,13,59,7.40
2019,11,02,14,00,7.50
2019,11,02,14,01,7.50
2019,11,02,14,02,7.50
2019,11,02,14,03,7.60
2019,11,02,14,04,7.60
2019,11,02,14,05,7.60
2019,11,02,14,06,7.70
2019,11,02,14,07,7.70
2019,11,02,14,08,7.70
2019,11,02,14,09,7.80
2019,11,02,14,10,7.90
2019,11,02,14,11,7.90
2019,11,02,14,12,8.00
2019,11,02,14,13,8.00
2019,11,02,14,14,8.10
2019,11,02,14,15,8.20
2019,11,02,14,16,8.20
2019,11,02,14,17,8.20
2019,11,02,14,18,8.20
2019,11,02,14,19,8.20
2019,11,02,14,20,8.30
2019,11,02,14,21,8.30
2019,11,02,14,22,8.40
2019,11,02,14,23,8.40
2019,11,02,14,24,8.50
2019,11,02,14,25,8.50
2019,11,02,14,26,8.50
2019,11,02,14,27,8.50
2019,11,02,14,28,8.40
2019,11,02,14,29,8.50
2019,11,02,14,30,8.50
2019,11,02,14,31,8.50
2019,11,02,14,32,8.50
2019,11,02,14,33,8.50
2019,11,02,14,34,8.50
2019,11,02,14,35,8.50
2019,11,02,14,36,8.60
2019,11,02,14,37,8.60
2019,11,02,14,38,8.70
2019,11,02,14,39,8.70
2019,11,02,14,40,8.80
2019,11,02,14,41,8.80
2019,11,02,14,42,8.90
2019,11,02,14,43,8.90
2019,11,02,14,44,8.90
2019,11,02,14,45,8.90
2019,11,02,14,46,8.90
2019,11,02,14,47,9.00
2019,11,02,14,48,9.00
2019,11,02,14,49,9.10
2019,11,02,14,50,9.10
2019,11,02,14,51,9.10
2019,11,02,14,52,9.10
2019,11,02,14,53,9.10
2019,11,02,14,54,9.10
2019,11,02,14,55,9.20
2019,11,02,14,56,9.20
2019,11,02,14,57,9.20
2019,11,02,14,58,9.20
2019,11,02,14,59,9.20
2019,11,02,15,00,9.20
2019,11,02,15,01,9.30
2019,11,02,15,02,9.30
2019,11,02,15,03,9.30
2019,11,02,15,04,9.40
2019,11,02,15,05,9.40
2019,11,02,15,06,9.50
2019,11,02,15,07,9.50
2019,11,02,15,08,9.60
2019,11,02,15,09,9.70
2019,11,02,15,10,9.70
2019,11,02,15,11,9.80
2019,11,02,15,12,9.90
2019,11,02,15,13,10.00
2019,11,02,15,14,10.00
2019,11,02,15,15,10.00
2019,11,02,15,16,10.00
2019,11,02,15,17,10.00
2019,11,02,15,18,10.00
2019,11,02,15,19,10.10
2019,11,02,15,20,10.20
2019,11,02,15,21,10.30
2019,11,02,15,22,10.30
2019,11,02,15,23,10.30
2019,11,02,15,24,10.30
2019,11,02,15,25,10.30
2019,11,02,15,26,10.30
2019,11,02,15,27,10.40
2019,11,02,15,28,10.40
2019,11,02,15,29,10.40
2019,11,02,15,30,10.40
2019,11,02,15,31,10.40
2019,11,02,15,32,10.40
2019,11,02,15,33,10.40
2019,11,02,15,34,10.50
2019,11,02,15,35,10.50
2019,11,02,15,36,10.50
2019,11,02,15,37,10.60
2019,11,02,15,38,10.60
2019,11,02,15,39,10.60
2019,11,02,15,40,10.70
2019,11,02,15,41,10.70
2019,11,02,15,42,10.80
2019,11,02,15,43,10.80
2019,11,02,15,44,10.80
2019,11,02,15,45,10.80
2019,11,02,15,46,10.90
2019,11,02,15,47,10.90
2019,11,02,15,48,10.90
2019,11,02,15,49,10.90
2019,11,02,15,50,10.90
2019,11,02,15,51,10.90
2019,11,02,15,52,10.90
2019,11,02,15,53,10.90
2019,11,02,15,54,10.90
2019,11,02,15,55,10.90
2019,11,02,15,56,11.00
2019,11,02,15,57,11.00
2019,11,02,15,58,11.00
2019,11,02,15,59,11.10
2019,11,02,16,00,11.10
2019,11,02,16,01,11.20
2019,11,02,16,02,11.20
2019,11,02,16,03,11.20
2019,11,02,16,04,11.20
2019,11,02,16,05,11.30
2019,11,02,16,06,11.30
2019,11,02,16,07,11.30
2019,11,02,16,08,11.30
2019,11,02,16,09,11.30
2019,11,02,16,10,11.30
2019,11,02,16,11,11.30
2019,11,02,16,12,11.30
2019,11,02,16,13,11.30
2019,11,02,16,14,11.30
2019,11,02,16,15,11.30
2019,11,02,16,16,11.30
2019,11,02,16,17,11.20
2019,11,02,16,18,11.20
2019,11,02,16,19,11.20
2019,11,02,16,20,11.10
2019,11,02,16,21,11.10
2019,11,02,16,22,11.10
2019,11,02,16,23,11.10
2019,11,02,16,24,11.10
2019,11,02,16,25,11.10
2019,11,02,16,26,11.10
2019,11,02,16,27,11.10
2019,11,02,16,28,11.10
2019,11,02,16,29,11.00
2019,11,02,16,30,10.90
2019,11,02,16,31,10.90
2019,11,02,16,32,10.90
2019,11,02,16,33,10.90
2019,11,02,16,34,10.90
2019,11,02,16,35,10.90
2019,11,02,16,36,10.90
2019,11,02,16,37,10.90
2019,11,02,16,38,10.90
2019,11,02,16,39,10.90
2019,11,02,16,40,10.90
2019,11,02,16,41,10.90
2019,11,02,16,42,10.90
2019,11,02,16,43,10.90
2019,11,02,16,44,10.90
2019,11,02,16,45,10.90
2019,11,02,16,46,10.90
2019,11,02,16,47,10.90
2019,11,02,16,48,10.90
2019,11,02,16,49,10.90
2019,11,02,16,50,10.90
2019,11,02,16,51,10.90
2019,11,02,16,52,10.90
2019,11,02,16,53,10.90
2019,11,02,16,54,10.90
2019,11,02,16,55,10.90
2019,11,02,16,56,10.90
2019,11,02,16,57,10.90
2019,11,02,16,58,10.90
2019,11,02,16,59,11.00
2019,11,02,17,00,11.00
2019,11,02,17,01,11.00
2019,11,02,17,02,11.00
2019,11,02,17,03,11.00
2019,11,02,17,04,11.00
2019,11,02,17,05,11.10
2019,11,02,17,06,11.10
2019,11,02,17,07,11.10
2019,11,02,17,08,11.10
2019,11,02,17,09,11.10
2019,11,02,17,10,11.10
2019,11,02,17,11,11.10
2019,11,02,17,12,11.10
2019,11,02,17,13,11.10
2019,11,02,17,14,11.10
2019,11,02,17,15,11.10
2019,11,02,17,16,11.10
2019,11,02,17,17,11.10
2019,11,02,17,18,11.10
2019,11,02,17,19,11.10
2019,11,02,17,20,11.10
2019,11,02,17,21,11.10
2019,11,02,17,22,11.10
2019,11,02,17,23,11.10
2019,11,02,17,24,11.10
2019,11,02,17,25,11.10
2019,11,02,17,26,11.00
2019,11,02,17,27,11.00
2019,11,02,17,28,11.00
2019,11,02,17,29,11.00
2019,11,02,17,30,11.00
2019,11,02,17,31,11.00
2019,11,02,17,32,10.90
2019,11,02,17,33,10.80
2019,11,02,17,34,10.80
2019,11,02,17,35,10.80
2019,11,02,17,36,10.80
2019,11,02,17,37,10.80
2019,11,02,17,38,10.70
2019,11,02,17,39,10.70
2019,11,02,17,40,10.60
2019,11,02,17,41,10.60
2019,11,02,17,42,10.50
2019,11,02,17,43,10.50
2019,11,02,17,44,10.40
2019,11,02,17,45,10.40
2019,11,02,17,46,10.40
2019,11,02,17,47,10.30
2019,11,02,17,48,10.30
2019,11,02,17,49,10.30
2019,11,02,17,50,10.20
2019,11,02,17,51,10.20
2019,11,02,17,52,10.20
2019,11,02,17,53,10.10
2019,11,02,17,54,10.10
2019,11,02,17,55,10.10
2019,11,02,17,56,10.10
2019,11,02,17,57,10.00
2019,11,02,17,58,10.00
2019,11,02,17,59,9.90